Tracking 20083 objects as of 11-Dec-2019
HD Live streaming from Space Station
objects crossing your sky now

SL-12 R/B(2)

Track SL-12 R/B(2) now!


NORAD ID: 27620
Int'l Code: 2002-060D
Perigee: 19,099.6 km
Apogee: 19,119.3 km
Inclination: 65.8 °
Period: 674.6 minutes
Semi major axis: 25480 km
RCS: 1.5848 m2 (large)
Launch date: December 25, 2002
Source: Commonwealth of Independent States (former USSR) (CIS)
Launch site: TYURATAM MISSILE AND SPACE COMPLEX (TTMTR)

Note: This is a ROCKET BODY
aabbcc
Your satellite tracking list
Your tracking list is empty




NASA's NSSDC Master Catalog

Two Line Element Set (TLE):
1 27620U 02060D   19344.31442057 -.00000037 +00000-0 +00000-0 0  9993
2 27620 065.7770 034.6739 0003855 240.2882 117.5981 02.13447861132228
Source of the keplerian elements: AFSPC